Time,TemperatureF,DewpointF,PressureIn,WindDirection,WindDirectionDegrees,WindSpeedMPH,WindSpeedGustMPH,Humidity,HourlyPrecipIn,Conditions,Clouds,dailyrainin,SoftwareType,DateUTC
2013-02-12 00:01:00,41.0,29.8,30.01,NE,45,3.1,-999.0,64,-99.99,,,0.00,Acu-Link.com,2013-02-12 06:01:00,
2013-02-12 00:16:00,40.6,29.8,30.01,East,90,5.8,-999.0,65,-99.99,,,0.00,Acu-Link.com,2013-02-12 06:16:00,
2013-02-12 00:32:00,39.7,29.3,30.01,ENE,67,4.3,-999.0,66,-99.99,,,0.00,Acu-Link.com,2013-02-12 06:32:00,
2013-02-12 00:47:00,39.4,29.7,30.00,East,90,4.7,-999.0,68,-99.99,,,0.00,Acu-Link.com,2013-02-12 06:47:00,
2013-02-12 01:02:00,39.2,29.5,30.00,ENE,67,4.3,-999.0,68,-99.99,,,0.00,Acu-Link.com,2013-02-12 07:02:00,
2013-02-12 01:17:00,39.6,29.9,30.00,NE,45,5.1,-999.0,68,-99.99,,,0.00,Acu-Link.com,2013-02-12 07:17:00,
2013-02-12 01:32:00,39.9,30.2,30.00,East,90,4.7,-999.0,68,-99.99,,,0.00,Acu-Link.com,2013-02-12 07:32:00,
2013-02-12 01:47:00,40.1,30.4,30.00,East,90,4.3,-999.0,68,-99.99,,,0.00,Acu-Link.com,2013-02-12 07:47:00,
2013-02-12 02:06:00,40.1,30.4,30.00,East,90,3.8,-999.0,68,-99.99,,,0.00,Acu-Link.com,2013-02-12 08:06:00,
2013-02-12 02:22:00,40.1,30.4,30.00,NE,45,3.8,-999.0,68,-99.99,,,0.00,Acu-Link.com,2013-02-12 08:22:00,
2013-02-12 02:37:00,40.1,30.4,29.99,ENE,67,4.3,-999.0,68,-99.99,,,0.00,Acu-Link.com,2013-02-12 08:37:00,
2013-02-12 02:53:00,40.3,30.6,30.00,East,90,4.7,-999.0,68,-99.99,,,0.00,Acu-Link.com,2013-02-12 08:53:00,
2013-02-12 03:19:00,40.3,30.6,29.99,East,90,3.8,-999.0,68,-99.99,,,0.00,Acu-Link.com,2013-02-12 09:19:00,
2013-02-12 03:34:00,40.5,31.1,30.00,ESE,112,3.8,-999.0,69,-99.99,,,0.00,Acu-Link.com,2013-02-12 09:34:00,
2013-02-12 03:49:00,40.8,31.5,30.00,NE,45,5.8,-999.0,69,-99.99,,,0.00,Acu-Link.com,2013-02-12 09:49:00,
2013-02-12 04:04:00,41.4,34.0,29.98,NE,45,5.1,-999.0,75,-99.99,,,0.00,Acu-Link.com,2013-02-12 10:04:00,
2013-02-12 04:19:00,41.9,34.6,29.98,NE,45,6.7,-999.0,75,-99.99,,,0.00,Acu-Link.com,2013-02-12 10:19:00,
2013-02-12 04:34:00,41.7,35.1,29.96,NE,45,6.7,-999.0,77,-99.99,,,0.00,Acu-Link.com,2013-02-12 10:34:00,
2013-02-12 04:49:00,41.2,35.2,29.95,ENE,67,8.9,-999.0,79,-99.99,,,0.00,Acu-Link.com,2013-02-12 10:49:00,
2013-02-12 05:04:00,41.0,35.6,29.95,NE,45,11.4,-999.0,81,-99.99,,,0.00,Acu-Link.com,2013-02-12 11:04:00,
2013-02-12 05:19:00,39.9,36.1,29.95,NE,45,10.3,-999.0,86,-99.99,,,0.02,Acu-Link.com,2013-02-12 11:19:00,
2013-02-12 05:34:00,39.2,36.5,29.95,NE,45,7.8,-999.0,90,-99.99,,,0.05,Acu-Link.com,2013-02-12 11:34:00,
2013-02-12 05:50:00,38.5,36.9,29.94,East,90,7.4,-999.0,94,-99.99,,,0.11,Acu-Link.com,2013-02-12 11:50:00,
2013-02-12 06:05:00,38.3,37.8,29.93,NE,45,11.4,-999.0,98,-99.99,,,0.16,Acu-Link.com,2013-02-12 12:05:00,
2013-02-12 06:20:00,38.3,37.8,29.92,NE,45,7.8,-999.0,98,-99.99,,,0.30,Acu-Link.com,2013-02-12 12:20:00,
2013-02-12 06:35:00,38.3,37.8,29.91,NE,45,9.4,-999.0,98,-99.99,,,0.37,Acu-Link.com,2013-02-12 12:35:00,
2013-02-12 06:50:00,38.1,37.6,29.93,NE,45,7.4,-999.0,98,-99.99,,,0.44,Acu-Link.com,2013-02-12 12:50:00,
2013-02-12 07:05:00,37.8,37.2,29.93,NE,45,7.4,-999.0,98,-99.99,,,0.58,Acu-Link.com,2013-02-12 13:05:00,
2013-02-12 07:20:00,37.2,36.7,29.93,NE,45,14.5,-999.0,98,-99.99,,,0.84,Acu-Link.com,2013-02-12 13:20:00,
2013-02-12 07:35:00,37.0,36.5,29.91,NE,45,11.0,-999.0,98,-99.99,,,0.91,Acu-Link.com,2013-02-12 13:35:00,
2013-02-12 07:50:00,37.4,36.9,29.96,North,0,9.4,-999.0,98,-99.99,,,0.96,Acu-Link.com,2013-02-12 13:50:00,
2013-02-12 08:05:00,36.9,36.3,29.98,NNE,22,9.4,-999.0,98,-99.99,,,1.01,Acu-Link.com,2013-02-12 14:05:00,
2013-02-12 08:20:00,35.8,35.3,29.99,NE,45,8.9,-999.0,98,-99.99,,,1.22,Acu-Link.com,2013-02-12 14:20:00,
2013-02-12 08:35:00,35.2,34.7,29.98,NNE,22,11.0,-999.0,98,-99.99,,,1.31,Acu-Link.com,2013-02-12 14:35:00,
2013-02-12 08:50:00,34.9,34.4,29.99,NE,45,7.8,-999.0,98,-99.99,,,1.38,Acu-Link.com,2013-02-12 14:50:00,
2013-02-12 09:06:00,34.9,34.4,29.99,North,0,11.0,-999.0,98,-99.99,,,1.43,Acu-Link.com,2013-02-12 15:06:00,
2013-02-12 09:21:00,35.1,34.6,29.99,North,0,8.3,-999.0,98,-99.99,,,1.54,Acu-Link.com,2013-02-12 15:21:00,
2013-02-12 09:36:00,35.2,34.7,29.99,NNE,22,8.3,-999.0,98,-99.99,,,1.56,Acu-Link.com,2013-02-12 15:36:00,
2013-02-12 09:51:00,35.1,34.6,29.99,NE,45,13.0,-999.0,98,-99.99,,,1.58,Acu-Link.com,2013-02-12 15:51:00,
2013-02-12 10:06:00,35.2,34.7,29.99,NE,45,11.4,-999.0,98,-99.99,,,1.63,Acu-Link.com,2013-02-12 16:06:00,
2013-02-12 10:21:00,35.6,35.1,30.00,NE,45,8.3,-999.0,98,-99.99,,,1.68,Acu-Link.com,2013-02-12 16:21:00,
2013-02-12 10:36:00,35.8,35.3,29.99,NE,45,14.5,-999.0,98,-99.99,,,1.68,Acu-Link.com,2013-02-12 16:36:00,
2013-02-12 10:51:00,35.8,35.3,29.99,East,90,17.7,-999.0,98,-99.99,,,1.70,Acu-Link.com,2013-02-12 16:51:00,
2013-02-12 11:06:00,36.5,36.0,29.94,ENE,67,20.6,-999.0,98,-99.99,,,1.72,Acu-Link.com,2013-02-12 17:06:00,
2013-02-12 11:22:00,36.7,36.2,29.95,ESE,112,18.6,-999.0,98,-99.99,,,1.84,Acu-Link.com,2013-02-12 17:22:00,
2013-02-12 11:37:00,36.3,35.8,29.94,NE,45,18.1,-999.0,98,-99.99,,,1.87,Acu-Link.com,2013-02-12 17:37:00,
2013-02-12 11:52:00,37.0,36.5,29.94,ENE,67,15.0,-999.0,98,-99.99,,,1.89,Acu-Link.com,2013-02-12 17:52:00,
2013-02-12 12:07:00,36.3,35.8,29.96,ENE,67,16.6,-999.0,98,-99.99,,,1.89,Acu-Link.com,2013-02-12 18:07:00,
2013-02-12 12:22:00,36.3,35.8,29.96,NE,45,13.4,-999.0,98,-99.99,,,1.89,Acu-Link.com,2013-02-12 18:22:00,
2013-02-12 12:37:00,36.1,35.6,29.96,NE,45,12.5,-999.0,98,-99.99,,,1.89,Acu-Link.com,2013-02-12 18:37:00,
2013-02-12 12:52:00,36.0,35.5,29.96,NE,45,13.4,-999.0,98,-99.99,,,1.89,Acu-Link.com,2013-02-12 18:52:00,
2013-02-12 13:07:00,35.8,35.3,29.95,NE,45,14.1,-999.0,98,-99.99,,,1.89,Acu-Link.com,2013-02-12 19:07:00,
2013-02-12 13:22:00,34.7,34.2,29.94,NNE,22,14.5,-999.0,98,-99.99,,,1.91,Acu-Link.com,2013-02-12 19:22:00,
2013-02-12 13:37:00,34.9,34.4,29.94,NE,45,8.3,-999.0,98,-99.99,,,1.95,Acu-Link.com,2013-02-12 19:37:00,
2013-02-12 13:52:00,35.1,34.6,29.95,NNE,22,11.9,-999.0,98,-99.99,,,1.98,Acu-Link.com,2013-02-12 19:52:00,
2013-02-12 14:07:00,34.7,34.2,29.95,NNE,22,6.7,-999.0,98,-99.99,,,2.02,Acu-Link.com,2013-02-12 20:07:00,
2013-02-12 14:22:00,34.2,33.7,29.95,North,0,7.4,-999.0,98,-99.99,,,2.05,Acu-Link.com,2013-02-12 20:22:00,
2013-02-12 14:37:00,33.6,33.1,29.95,North,0,8.9,-999.0,98,-99.99,,,2.05,Acu-Link.com,2013-02-12 20:37:00,
2013-02-12 14:52:00,33.4,32.9,29.95,NNE,22,7.8,-999.0,98,-99.99,,,2.07,Acu-Link.com,2013-02-12 20:52:00,
2013-02-12 15:07:00,33.4,32.9,29.96,North,0,7.8,-999.0,98,-99.99,,,2.09,Acu-Link.com,2013-02-12 21:07:00,
2013-02-12 15:22:00,33.1,32.6,29.96,NNW,337,7.4,-999.0,98,-99.99,,,2.09,Acu-Link.com,2013-02-12 21:22:00,
2013-02-12 15:37:00,33.3,32.8,29.96,NNE,22,8.9,-999.0,98,-99.99,,,2.09,Acu-Link.com,2013-02-12 21:37:00,
2013-02-12 15:53:00,34.5,34.0,29.96,North,0,8.3,-999.0,98,-99.99,,,2.12,Acu-Link.com,2013-02-12 21:53:00,
2013-02-12 16:08:00,35.6,35.1,29.96,NNE,22,9.8,-999.0,98,-99.99,,,2.19,Acu-Link.com,2013-02-12 22:08:00,
2013-02-12 16:23:00,36.0,35.5,29.97,NE,45,9.8,-999.0,98,-99.99,,,2.24,Acu-Link.com,2013-02-12 22:23:00,
2013-02-12 16:38:00,36.5,36.0,29.97,North,0,12.5,-999.0,98,-99.99,,,2.26,Acu-Link.com,2013-02-12 22:38:00,
2013-02-12 16:53:00,36.3,35.8,29.97,NNE,22,14.1,-999.0,98,-99.99,,,2.26,Acu-Link.com,2013-02-12 22:53:00,
2013-02-12 17:08:00,35.8,35.3,29.97,NNE,22,13.4,-999.0,98,-99.99,,,2.28,Acu-Link.com,2013-02-12 23:08:00,
2013-02-12 17:23:00,35.2,34.7,29.98,NNW,337,14.5,-999.0,98,-99.99,,,2.28,Acu-Link.com,2013-02-12 23:23:00,
2013-02-12 17:38:00,35.2,34.7,29.98,North,0,16.1,-999.0,98,-99.99,,,2.28,Acu-Link.com,2013-02-12 23:38:00,
2013-02-12 17:53:00,35.6,35.1,29.99,NNW,337,14.5,-999.0,98,-99.99,,,2.28,Acu-Link.com,2013-02-12 23:53:00,
2013-02-12 18:08:00,35.6,35.1,29.99,NW,315,15.0,-999.0,98,-99.99,,,2.28,Acu-Link.com,2013-02-13 00:08:00,
2013-02-12 18:23:00,35.4,34.9,29.99,NNW,337,14.5,-999.0,98,-99.99,,,2.28,Acu-Link.com,2013-02-13 00:23:00,
2013-02-12 18:38:00,35.2,34.7,30.00,North,0,14.1,-999.0,98,-99.99,,,2.28,Acu-Link.com,2013-02-13 00:38:00,
2013-02-12 18:53:00,34.7,34.2,30.01,NNW,337,7.8,-999.0,98,-99.99,,,2.28,Acu-Link.com,2013-02-13 00:53:00,
2013-02-12 19:08:00,34.5,34.0,30.01,NNW,337,8.9,-999.0,98,-99.99,,,2.28,Acu-Link.com,2013-02-13 01:08:00,
2013-02-12 19:24:00,34.5,34.0,30.02,NNW,337,9.8,-999.0,98,-99.99,,,2.28,Acu-Link.com,2013-02-13 01:24:00,
2013-02-12 19:39:00,34.9,34.4,30.02,North,0,8.3,-999.0,98,-99.99,,,2.28,Acu-Link.com,2013-02-13 01:39:00,
2013-02-12 19:54:00,34.5,34.0,30.03,NNW,337,6.3,-999.0,98,-99.99,,,2.28,Acu-Link.com,2013-02-13 01:54:00,
2013-02-12 20:09:00,34.2,33.7,30.04,NNW,337,6.3,-999.0,98,-99.99,,,2.28,Acu-Link.com,2013-02-13 02:09:00,
2013-02-12 20:24:00,33.8,33.3,30.04,NNW,337,4.3,-999.0,98,-99.99,,,2.28,Acu-Link.com,2013-02-13 02:24:00,
2013-02-12 20:39:00,33.6,33.1,30.04,North,0,2.2,-999.0,98,-99.99,,,2.28,Acu-Link.com,2013-02-13 02:39:00,
2013-02-12 20:54:00,33.1,32.6,30.04,NNW,337,3.1,-999.0,98,-99.99,,,2.28,Acu-Link.com,2013-02-13 02:54:00,
2013-02-12 21:09:00,33.1,32.6,30.05,NNW,337,9.4,-999.0,98,-99.99,,,2.28,Acu-Link.com,2013-02-13 03:09:00,
2013-02-12 21:24:00,32.9,32.4,30.06,NW,315,3.8,-999.0,98,-99.99,,,2.28,Acu-Link.com,2013-02-13 03:24:00,
2013-02-12 21:39:00,32.5,32.0,30.06,West,270,6.7,-999.0,98,-99.99,,,2.28,Acu-Link.com,2013-02-13 03:39:00,
2013-02-12 21:54:00,32.4,31.9,30.07,West,270,5.8,-999.0,98,-99.99,,,2.28,Acu-Link.com,2013-02-13 03:54:00,
2013-02-12 22:09:00,32.4,31.9,30.06,West,270,5.8,-999.0,98,-99.99,,,2.28,Acu-Link.com,2013-02-13 04:09:00,
2013-02-12 22:24:00,32.7,32.2,30.07,WNW,292,4.7,-999.0,98,-99.99,,,2.28,Acu-Link.com,2013-02-13 04:24:00,
2013-02-12 22:39:00,32.9,32.4,30.07,West,270,5.1,-999.0,98,-99.99,,,2.28,Acu-Link.com,2013-02-13 04:39:00,
2013-02-12 22:55:00,33.1,32.6,30.06,West,270,3.1,-999.0,98,-99.99,,,2.28,Acu-Link.com,2013-02-13 04:55:00,
2013-02-12 23:10:00,33.3,32.8,30.07,West,270,1.1,-999.0,98,-99.99,,,2.28,Acu-Link.com,2013-02-13 05:10:00,
2013-02-12 23:25:00,32.7,32.2,30.07,West,270,3.8,-999.0,98,-99.99,,,2.28,Acu-Link.com,2013-02-13 05:25:00,
2013-02-12 23:40:00,32.7,32.2,30.08,West,270,6.7,-999.0,98,-99.99,,,2.28,Acu-Link.com,2013-02-13 05:40:00,
2013-02-12 23:55:00,32.0,31.5,30.07,West,270,4.7,-999.0,98,-99.99,,,2.28,Acu-Link.com,2013-02-13 05:55:00,